TimeEDT,TemperatureF,Dew PointF,Humidity,Sea Level PressureIn,VisibilityMPH,Wind Direction,Wind SpeedMPH,Gust SpeedMPH,PrecipitationIn,Events,Conditions,WindDirDegrees,DateUTC
12:15 AM,59.0,59.0,100,30.04,5.0,Calm,Calm,-,N/A,,Clear,0,2012-11-02 04:15:00
12:35 AM,60.8,60.8,100,30.05,8.0,Calm,Calm,-,N/A,,Clear,0,2012-11-02 04:35:00
12:55 AM,60.8,60.8,100,30.04,7.0,Calm,Calm,-,N/A,,Clear,0,2012-11-02 04:55:00
1:15 AM,60.8,60.8,100,30.04,8.0,Calm,Calm,-,N/A,,Clear,0,2012-11-02 05:15:00
1:35 AM,60.8,60.8,100,30.04,7.0,Calm,Calm,-,N/A,,Clear,0,2012-11-02 05:35:00
1:55 AM,57.2,57.2,100,30.04,3.0,Calm,Calm,-,N/A,,Clear,0,2012-11-02 05:55:00
2:15 AM,57.2,57.2,100,30.04,4.0,Calm,Calm,-,N/A,,Clear,0,2012-11-02 06:15:00
2:35 AM,59.0,59.0,100,30.04,3.0,Calm,Calm,-,N/A,,Clear,0,2012-11-02 06:35:00
3:15 AM,57.2,57.2,100,30.04,2.5,Calm,Calm,-,N/A,,Clear,0,2012-11-02 07:15:00
3:35 AM,57.2,57.2,100,30.04,3.0,Calm,Calm,-,N/A,,Clear,0,2012-11-02 07:35:00
3:55 AM,53.6,53.6,100,30.04,0.2,Calm,Calm,-,N/A,Fog,Fog,0,2012-11-02 07:55:00
4:15 AM,51.8,51.8,100,30.05,0.5,Calm,Calm,-,N/A,Fog,Fog,0,2012-11-02 08:15:00
4:35 AM,51.8,51.8,100,30.05,5.0,Calm,Calm,-,N/A,,Clear,0,2012-11-02 08:35:00
4:55 AM,51.8,51.8,100,30.06,5.0,Calm,Calm,-,N/A,,Clear,0,2012-11-02 08:55:00
5:15 AM,51.8,51.8,100,30.06,10.0,Calm,Calm,-,N/A,,Clear,0,2012-11-02 09:15:00
5:35 AM,53.6,53.6,100,30.06,10.0,Calm,Calm,-,N/A,,Clear,0,2012-11-02 09:35:00
5:55 AM,51.8,51.8,100,30.06,5.0,Calm,Calm,-,N/A,,Clear,0,2012-11-02 09:55:00
6:15 AM,50.0,50.0,100,30.06,6.0,Calm,Calm,-,N/A,,Clear,0,2012-11-02 10:15:00
6:35 AM,51.8,51.8,100,30.06,9.0,Calm,Calm,-,N/A,,Clear,0,2012-11-02 10:35:00
6:55 AM,51.8,51.8,100,30.07,9.0,Calm,Calm,-,N/A,,Clear,0,2012-11-02 10:55:00
7:15 AM,53.6,53.6,100,30.07,10.0,Calm,Calm,-,N/A,,Clear,0,2012-11-02 11:15:00
3:35 PM,75.2,44.6,34,30.04,8.0,WNW,5.8,-,N/A,,Clear,300,2012-11-02 19:35:00
3:55 PM,75.2,44.6,34,30.04,8.0,NW,6.9,-,N/A,,Clear,320,2012-11-02 19:55:00
4:15 PM,75.2,44.6,34,30.04,9.0,WNW,5.8,-,N/A,,Clear,290,2012-11-02 20:15:00
4:35 PM,77.0,44.6,32,30.04,9.0,WNW,5.8,-,N/A,,Clear,290,2012-11-02 20:35:00
4:55 PM,75.2,44.6,34,30.04,8.0,West,5.8,-,N/A,,Clear,280,2012-11-02 20:55:00
5:15 PM,75.2,44.6,34,30.04,9.0,West,5.8,-,N/A,,Clear,280,2012-11-02 21:15:00
5:35 PM,75.2,44.6,34,30.04,10.0,WNW,8.1,-,N/A,,Clear,290,2012-11-02 21:35:00
5:55 PM,75.2,46.4,36,30.04,9.0,WNW,5.8,-,N/A,,Clear,290,2012-11-02 21:55:00
6:15 PM,73.4,48.2,41,30.04,10.0,West,4.6,-,N/A,,Clear,280,2012-11-02 22:15:00
6:35 PM,73.4,48.2,41,30.04,9.0,West,4.6,-,N/A,,Clear,270,2012-11-02 22:35:00
6:55 PM,71.6,48.2,43,30.05,8.0,West,5.8,-,N/A,,Clear,260,2012-11-02 22:55:00
7:15 PM,69.8,46.4,43,30.05,10.0,West,8.1,-,N/A,,Clear,280,2012-11-02 23:15:00
7:35 PM,69.8,44.6,40,30.06,10.0,West,8.1,-,N/A,,Clear,280,2012-11-02 23:35:00
7:55 PM,68.0,44.6,43,30.07,10.0,West,5.8,-,N/A,,Clear,280,2012-11-02 23:55:00
8:35 PM,66.2,46.4,49,30.08,10.0,West,5.8,-,N/A,,Clear,280,2012-11-03 00:35:00
8:55 PM,64.4,46.4,52,30.09,10.0,WNW,3.5,-,N/A,,Clear,290,2012-11-03 00:55:00
9:15 PM,64.4,46.4,52,30.09,10.0,West,4.6,-,N/A,,Clear,280,2012-11-03 01:15:00
9:35 PM,64.4,46.4,52,30.10,10.0,WNW,3.5,-,N/A,,Clear,290,2012-11-03 01:35:00
9:55 PM,64.4,46.4,52,30.10,10.0,West,4.6,-,N/A,,Clear,280,2012-11-03 01:55:00
10:35 PM,62.6,48.2,59,30.10,10.0,West,3.5,-,N/A,,Clear,280,2012-11-03 02:35:00
10:55 PM,55.4,48.2,77,30.10,10.0,Calm,Calm,-,N/A,,Clear,0,2012-11-03 02:55:00
11:15 PM,53.6,50.0,88,30.10,10.0,Calm,Calm,-,N/A,,Clear,0,2012-11-03 03:15:00
11:35 PM,53.6,51.8,94,30.10,10.0,Calm,Calm,-,N/A,,Clear,0,2012-11-03 03:35:00
11:55 PM,53.6,50.0,88,30.10,10.0,Calm,Calm,-,N/A,,Clear,0,2012-11-03 03:55:00